World > North America > United States > North Dakota

Upham, North Dakota Regional Weather

Lat: 48.58N, Lon: 100.73W
Wx Zone: NDZ012
Feedback

Upham, ND Regional Weather

Expires:201907222300;;477110
ASUS43 KBIS 222210
RWRND 

NORTH DAKOTA REGIONAL WEATHER ROUNDUP
NATIONAL WEATHER SERVICE BISMARCK ND
500 PM CDT MON JUL 22 2019

NOTE: "FAIR" INDICATES FEW OR NO CLOUDS BELOW 12,000 FEET WITH NO
SIGNIFICANT WEATHER AND/OR OBSTRUCTIONS TO VISIBILITY.



NDZ004>008-012>016-024-026-027-054-222300-
NORTHEAST NORTH DAKOTA
  
CITY           SKY/WX    TMP DP  RH WIND       PRES   REMARKS
GRAND FORKS    MOSUNNY   77  55  46 NW7       30.22F                  
GRND FRKS AFB  MOSUNNY   78  56  45 N6        30.24F                  
DEVILS LAKE    MOSUNNY   78  53  41 W7        30.27F                  
$$
 

SKY/WX - Weather  TMP - Temperature  DP - Dew Point  RH - Relative Humidity
WIND - Wind Direction/Speed PRES - Barometric Pressure VSB - Visibility
WCI - Wind Chill Index E13G22 Wind - East Wind 13 mph/Gusts of 22 mph